Simultaneous Nadir Overpasses (SNOs) Predictions

Prediction of SNOs over PacNW region [( 10.00, 139.50) to ( 22.70, 165.60)] between AQUA and NPP Satellites:

Table of predicted SNOs over PacNW region for the next 30.0 days since TLE Epoch: 4/2/2022
Index Date (AQUA) Time (AQUA) AQUA Lat,Lon Date (NPP) Time (NPP) NPP Lat,Lon Distance(km) Time Diff (sec)
1 04/04/2022 15:07:41 22.62, 160.85 04/04/2022 15:11:10 23.44, 157.31 373.91 209
2 04/07/2022 03:29:19 22.66, 148.57 04/07/2022 03:27:20 22.14, 145.91 279.02 119
3 04/15/2022 02:39:07 22.68, 161.14 04/15/2022 02:36:32 22.16, 158.60 267.19 155
4 04/23/2022 03:27:40 22.70, 149.03 04/23/2022 03:27:11 22.09, 145.95 323.86 29
5 05/01/2022 02:37:13 22.66, 161.68 05/01/2022 02:36:21 22.08, 158.66 317.45 52
